FW5316 Weather Reports


Display with metric or nautical units.
time (UTC)temp
F
wind
direction
speed
MPH
gust
MPH
rain 1hr
in
rain 24hr
in
rain mn
in
humidity
%
barometer
mb
20260906181016 82 325 6.0 12.0 0.00 0.00 0.00 58 1013.9
20260906180016 81 331 4.0 8.0 0.00 0.00 0.00 57 1013.9
20260906175016 81 333 4.0 8.0 0.00 0.00 0.00 59 1013.8
20260906174016 81 332 4.0 9.0 0.00 0.00 0.00 60 1013.7
20260906173036 81 334 5.0 9.0 0.00 0.00 0.00 62 1013.6
20260906172016 80 338 4.0 8.0 0.00 0.00 0.00 63 1013.5
20260906171016 80 338 4.0 10.0 0.00 0.00 0.00 63 1013.5
20260906170016 79 339 1.0 6.0 0.00 0.00 0.00 64 1013.5
20260906165016 79 355 3.0 8.0 0.00 0.00 0.00 65 1013.4
20260906164016 79 346 5.0 10.0 0.00 0.00 0.00 65 1013.3
20260906163016 78 351 5.0 10.0 0.00 0.00 0.00 66 1013.3
20260906162016 78 360 3.0 8.0 0.00 0.00 0.00 67 1013.2
20260906161036 78 3 3.0 11.0 0.00 0.00 0.00 67 1013.1
20260906160016 77 351 4.0 9.0 0.00 0.00 0.00 66 1013.1
20260906155036 77 359 5.0 10.0 0.00 0.00 0.00 65 1013.2
20260906154036 77 354 5.0 12.0 0.00 0.00 0.00 65 1013.1
20260906153016 77 351 5.0 10.0 0.00 0.00 0.00 66 1013.2
20260906152016 77 1 4.0 10.0 0.00 0.00 0.00 67 1013.3
20260906151016 77 355 3.0 8.0 0.00 0.00 0.00 67 1013.2
20260906150016 77 2 3.0 6.0 0.00 0.00 0.00 68 1013.2
20260906145016 76 354 2.0 5.0 0.00 0.00 0.00 69 1013.2
20260906144016 76 347 2.0 4.0 0.00 0.00 0.00 70 1013.1
20260906143016 76 350 2.0 4.0 0.00 0.00 0.00 70 1012.9
20260906142016 76 0.0 0.0 0.00 0.00 0.00 69 1012.8
20260906141015 76 0.0 0.0 0.00 0.00 0.00 68 1012.6
20260906140016 76 0.0 2.0 0.00 0.00 0.00 68 1012.5
20260906135017 76 356 2.0 4.0 0.00 0.00 0.00 68 1012.3
20260906134016 76 3 2.0 4.0 0.00 0.00 0.00 70 1012.1
20260906133036 75 0.0 0.0 0.00 0.00 0.00 69 1012.1
20260906132016 75 0.0 0.0 0.00 0.00 0.00 69 1012.0
20260906131038 75 0.0 0.0 0.00 0.00 0.00 69 1012.0
20260906130016 75 0.0 0.0 0.00 0.00 0.00 69 1012.0
20260906125016 75 9 0.0 2.0 0.00 0.00 0.00 69 1012.0
20260906124016 75 9 0.0 4.0 0.00 0.00 0.00 69 1012.0
20260906123015 75 6 3.0 4.0 0.00 0.00 0.00 70 1011.9
20260906122016 75 9 2.0 5.0 0.00 0.00 0.00 70 1011.9
20260906121057 75 358 1.0 4.0 0.00 0.00 0.00 71 1012.0
20260906120015 75 0 0.0 4.0 0.00 0.00 0.00 70 1012.0
20260906115036 75 7 0.0 4.0 0.00 0.00 0.00 68 1012.0
20260906114016 75 26 0.0 6.0 0.00 0.00 0.00 69 1012.1
20260906113015 75 0.0 4.0 0.00 0.00 0.00 70 1012.0
20260906112036 75 11 1.0 5.0 0.00 0.00 0.00 70 1012.1
20260906111015 75 10 2.0 4.0 0.00 0.00 0.00 69 1012.2
20260906110015 76 0 1.0 3.0 0.00 0.00 0.00 69 1012.3
20260906105015 76 360 1.0 4.0 0.00 0.00 0.00 68 1012.2
20260906104036 76 349 0.0 1.0 0.00 0.00 0.00 67 1012.3
20260906103015 76 0 2.0 6.0 0.00 0.00 0.00 67 1012.3
20260906102015 76 8 2.0 5.0 0.00 0.00 0.00 68 1012.4
20260906101036 76 6 1.0 3.0 0.00 0.00 0.00 68 1012.4
20260906095015 77 4 3.0 9.0 0.00 0.00 0.00 68 1012.4
20260906094015 77 4 2.0 8.0 0.00 0.00 0.00 67 1012.4
20260906093016 77 358 5.0 10.0 0.00 0.00 0.00 67 1012.5
20260906092015 77 3 3.0 8.0 0.00 0.00 0.00 66 1012.5
20260906091016 77 3 3.0 8.0 0.00 0.00 0.00 66 1012.6
20260906090016 77 338 0.0 5.0 0.00 0.00 0.00 64 1012.7
20260906085035 78 357 2.0 6.0 0.00 0.00 0.00 63 1012.8
20260906084016 78 340 3.0 8.0 0.00 0.00 0.00 62 1012.8
20260906083015 78 346 3.0 9.0 0.00 0.00 0.00 60 1012.8
20260906082015 78 339 3.0 8.0 0.00 0.00 0.00 58 1012.9
20260906081016 78 332 3.0 5.0 0.00 0.00 0.00 56 1013.0
20260906080015 78 7 1.0 3.0 0.00 0.00 0.00 54 1013.2
20260906075116 78 6 0.0 3.0 0.00 0.00 0.00 52 1013.3
20260906074037 78 0.0 0.0 0.00 0.00 0.00 52 1013.3
20260906073015 79 0.0 0.0 0.00 0.00 0.00 52 1013.4
20260906072015 79 0.0 0.0 0.00 0.00 0.00 51 1013.4
20260906071015 79 0.0 0.0 0.00 0.00 0.00 50 1013.3
20260906070017 79 0.0 4.0 0.00 0.00 0.00 48 1013.2
20260906065016 79 0 0.0 3.0 0.00 0.00 0.00 46 1013.2
20260906064015 79 0 1.0 3.0 0.00 0.00 0.00 45 1013.1
20260906063016 79 0 0.0 3.0 0.00 0.00 0.00 45 1013.2
20260906062015 79 0.0 0.0 0.00 0.00 0.00 45 1013.4
20260906061015 79 0.0 0.0 0.00 0.00 0.00 45 1013.2
20260906060016 79 0.0 2.0 0.00 0.00 0.00 45 1013.1
20260906055015 79 6 0.0 2.0 0.00 0.00 0.00 45 1013.0
20260906054036 79 0.0 0.0 0.00 0.00 0.00 45 1013.1
20260906053015 79 0.0 0.0 0.00 0.00 0.00 45 1013.2
20260906052055 79 0.0 0.0 0.00 0.00 0.00 45 1013.2
20260906051035 79 0.0 0.0 0.00 0.00 0.00 46 1013.3
20260906050015 79 4 0.0 4.0 0.00 0.00 0.00 46 1013.2
20260906045015 79 354 2.0 5.0 0.00 0.00 0.00 47 1013.2
20260906044016 79 7 2.0 4.0 0.00 0.00 0.00 46 1013.1
20260906043036 79 9 0.0 4.0 0.00 0.00 0.00 46 1013.1
20260906042016 79 7 1.0 4.0 0.00 0.00 0.00 45 1013.1
20260906041015 80 6 2.0 5.0 0.00 0.00 0.00 43 1013.0
20260906040056 80 3 1.0 5.0 0.00 0.00 0.00 41 1013.0
20260906035016 80 6 3.0 6.0 0.00 0.00 0.00 40 1012.9
20260906034015 80 2 3.0 8.0 0.00 0.00 0.00 39 1012.9
20260906033015 81 2 2.0 5.0 0.00 0.00 0.00 41 1012.8
20260906032015 81 5 2.0 8.0 0.00 0.00 0.00 44 1012.7
20260906031015 81 354 3.0 7.0 0.00 0.00 0.00 41 1012.6
20260906030015 82 353 3.0 6.0 0.00 0.00 0.00 38 1012.5
20260906025015 82 353 4.0 9.0 0.00 0.00 0.00 36 1012.5
20260906024035 83 7 2.0 5.0 0.00 0.00 0.00 38 1012.4
20260906023038 84 349 4.0 8.0 0.00 0.00 0.00 42 1012.3
20260906022016 85 353 4.0 6.0 0.00 0.00 0.00 42 1012.3
20260906021015 85 325 5.0 9.0 0.00 0.00 0.00 40 1012.2
20260906020015 86 324 3.0 6.0 0.00 0.00 0.00 39 1012.2
20260906015035 86 324 4.0 8.0 0.00 0.00 0.00 42 1012.2
20260906014016 87 312 3.0 8.0 0.00 0.00 0.00 42 1012.3
20260906013015 88 318 4.0 10.0 0.00 0.00 0.00 41 1012.3
20260906012056 88 295 3.0 9.0 0.00 0.00 0.00 40 1012.3
20260906011015 88 281 2.0 6.0 0.00 0.00 0.00 34 1012.3
20260906010015 89 282 5.0 9.0 0.00 0.00 0.00 31 1012.3
20260906005015 89 281 4.0 9.0 0.00 0.00 0.00 32 1012.3
20260906004116 90 305 5.0 9.0 0.00 0.00 0.00 33 1012.3
20260906003015 90 311 5.0 10.0 0.00 0.00 0.00 35 1012.3
20260906002015 90 301 4.0 9.0 0.00 0.00 0.00 33 1012.4
20260906001017 90 264 4.0 9.0 0.00 0.00 0.00 32 1012.4
20260906000015 91 264 3.0 10.0 0.00 0.00 0.00 30 1012.3
20260905235015 91 282 4.0 9.0 0.00 0.00 0.00 28 1012.4
20260905234016 92 256 4.0 8.0 0.00 0.00 0.00 28 1012.4
20260905233015 92 255 4.0 9.0 0.00 0.00 0.00 26 1012.4
20260905232015 92 227 4.0 10.0 0.00 0.00 0.00 26 1012.5
20260905231016 93 236 3.0 10.0 0.00 0.00 0.00 26 1012.4
20260905230015 94 261 4.0 10.0 0.00 0.00 0.00 27 1012.4
20260905225015 95 274 5.0 11.0 0.00 0.00 0.00 26 1012.4
20260905224015 95 244 3.0 8.0 0.00 0.00 0.00 24 1012.3
20260905223017 96 250 3.0 9.0 0.00 0.00 0.00 23 1012.5
20260905222018 97 217 4.0 10.0 0.00 0.00 0.00 19 1012.6
20260905221017 98 250 3.0 10.0 0.00 0.00 0.00 18 1012.8
20260905220017 97 251 3.0 10.0 0.00 0.00 0.00 19 1012.8
20260905215017 97 283 4.0 10.0 0.00 0.00 0.00 22 1012.8
20260905214016 96 234 5.0 11.0 0.00 0.00 0.00 20 1012.9
20260905213017 96 245 4.0 11.0 0.00 0.00 0.00 21 1012.9
20260905212017 96 249 4.0 11.0 0.00 0.00 0.00 23 1013.1
20260905211016 95 256 5.0 12.0 0.00 0.00 0.00 26 1013.2
20260905210015 96 250 4.0 12.0 0.00 0.00 0.00 25 1013.1
20260905205017 96 246 4.0 10.0 0.00 0.00 0.00 24 1013.1
20260905204016 97 203 6.0 10.0 0.00 0.00 0.00 23 1013.2
20260905203017 97 240 4.0 14.0 0.00 0.00 0.00 25 1013.4
20260905202016 97 207 6.0 11.0 0.00 0.00 0.00 25 1013.4
20260905201016 97 199 5.0 13.0 0.00 0.00 0.00 23 1013.5
20260905200016 97 219 4.0 11.0 0.00 0.00 0.00 23 1013.5
20260905195016 97 198 6.0 13.0 0.00 0.00 0.00 24 1013.7
20260905194016 97 190 5.0 10.0 0.00 0.00 0.00 24 1013.7
20260905193016 97 177 5.0 10.0 0.00 0.00 0.00 22 1013.8
20260905192016 97 273 3.0 9.0 0.00 0.00 0.00 22 1013.8
20260905191016 97 224 3.0 9.0 0.00 0.00 0.00 23 1013.9
20260905190016 96 313 2.0 10.0 0.00 0.00 0.00 27 1014.1
20260905185016 95 269 3.0 7.0 0.00 0.00 0.00 29 1014.2
20260905184117 94 191 4.0 8.0 0.00 0.00 0.00 28 1014.3
20260905183017 94 263 2.0 8.0 0.00 0.00 0.00 30 1014.3
20260905182017 94 281 3.0 8.0 0.00 0.00 0.00 32 1014.5